Tracking 20041 objects as of 22-Nov-2019
Live streaming from Space Station
objects crossing your sky now

NADEZHDA 2

Track NADEZHDA 2 now!
10-day predictions
NADEZHDA 2 is classified as:


NORAD ID: 20508
Int'l Code: 1990-017A
Perigee: 959.9 km
Apogee: 1,022.9 km
Inclination: 83.0 °
Period: 104.8 minutes
Semi major axis: 7362 km
RCS: 2.5733 m2 (large)
Launch date: February 27, 1990
Source: Commonwealth of Independent States (former USSR) (CIS)
Launch site: PLESETSK MISSILE AND SPACE COMPLEX (PKMTR)
aabbcc
Your satellite tracking list
Your tracking list is empty




NASA's NSSDC Master Catalog

Two Line Element Set (TLE):
1 20508U 90017A   19326.40811816  .00000019  00000-0  43913-5 0  9997
2 20508  82.9589  45.8249 0042831 286.8191 121.6169 13.74279964491094
Source of the keplerian elements: AFSPC